Location: Unspecified
(44.4377°N, 88.0525°W)
Time: 20:23:12
(UTC-05:00)

Cosmos 1674 - Visible Passes

Search period start: 29 August 2016 00:00
Search period end: 08 September 2016 00:00
Orbit: 499 x 526 km, 82.5° (Epoch: 29 August)

Date Brightness Start Highest point End Pass type
(mag) Time Alt. Az. Time Alt. Az. Time Alt. Az.
04 Sep 6.0 23:27:48 10° N 23:27:52 10° N 23:27:52 10° N visible
05 Sep 5.9 23:11:52 10° N 23:12:01 11° N 23:12:01 11° N visible
06 Sep 5.8 22:55:56 10° N 22:56:10 11° N 22:56:10 11° N visible
07 Sep 5.7 22:40:03 10° N 22:40:19 12° N 22:40:19 12° N visible
